User: anonymous   Login
Location: Unspecified
(0.0000°N, 0.0000°E)
Time: 22:59:57
(UTC+00:00)
Language:

LAPAN A2 - Orbit

View from above orbital plane
View from above orbital plane
View from above satellite
View from above satellite

Ground track
Ground track

The orbit data is extracted from the following two-line orbital elements,

1 40931U 15052B   18352.18410825  .00000648  00000-0  10942-5 0  9997
2 40931   6.0000 278.0513 0013288  87.0941 273.1472 14.76593467174248
Epoch (UTC): 18 December 2018 04:25:06
Eccentricity: 0.0013288
inclination: 6.0000°
perigee height: 631 km
apogee height: 649 km
right ascension of ascending node: 278.0513°
argument of perigee: 87.0941°
revolutions per day: 14.76593467
mean anomaly at epoch: 273.1472°
orbit number at epoch: 17424

The dashed part of the orbit path shows where the satellite is in the earth's shadow,  

DLR